Regional Weather Roundup
Issued by NWS Cleveland, OH

Home | Current Version | Previous Version | Graphics & Text | Print | Product List | Glossary On
Versions: 1 2 3 4 5 6 7 8 9 10 11 12 13 14 15 16 17 18 19 20 21 22 23 24 25 26 27 28 29 30 31 32 33 34 35 36 37 38 39 40 41 42 43 44 45 46 47 48 49 50
000
ASUS41 KCLE 230800
RWRCLE
OHIO REGIONAL WEATHER ROUNDUP
NATIONAL WEATHER SERVICE WILMINGTON, OH
300 AM EST FRI FEB 23 2018

NOTE: "FAIR" INDICATES FEW OR NO CLOUDS BELOW 12,000 FEET WITH NO
SIGNIFICANT WEATHER AND/OR OBSTRUCTIONS TO VISIBILITY.

OHZ001>008-015>018-024>027-034-035-043-044-230900-
   NORTHWEST OHIO

CITY           SKY/WX    TMP DP  RH WIND       PRES   REMARKS
DEFIANCE       CLOUDY    34  32  92 N10       30.34R FOG     WCI  26
FINDLAY        CLOUDY    37  35  92 E5        30.31F FOG
TOLEDO EXPRESS CLOUDY    34  34 100 N7        30.35F FOG     WCI  28
TOLEDO EXEC    CLOUDY    35  33  92 E6        30.34F FOG
LIMA           CLOUDY    38  38 100 E6        30.29F FOG
$$

OHZ009>014-019>023-028>033-038-089-230900-
   NORTHEAST OHIO

CITY           SKY/WX    TMP DP  RH WIND       PRES   REMARKS
CLE-HOPKINS    CLOUDY    40  37  89 E6        30.37F
CLE-LAKEFRONT  CLOUDY    37  35  92 NE7       30.35F FOG
CUY CO. ARPT   NOT AVBL
LORAIN-ELYRIA  CLOUDY    36  31  82 NE10      30.34F HAZE
ASHTABULA      CLOUDY    40  38  93 E10       30.36F
AKRON-CANTON   FOG       41  39  93 SE8       30.34F VSB 3/4
WOOSTER        NOT AVBL
MANSFIELD      CLOUDY    40  40 100 SE13      30.31F FOG
YOUNGSTOWN     CLOUDY    40  39  97 SE10      30.35F FOG
$$

OHZ042-051>053-060>062-070>072-077>081-230900-
  SOUTHWEST OHIO

CITY           SKY/WX    TMP DP  RH WIND       PRES   REMARKS
CINC-COVINGTON LGT RAIN  46  46 100 E6        30.30F FOG
CINC-LUNKEN    CLOUDY    46  46 100 CALM      30.33F FOG
HAMILTON       CLOUDY    46  46 100 CALM      30.33F FOG
DAYTON         NOT AVBL
WRIGHT-PAT AFB NOT AVBL
DAYTON GENERAL FOG       45  44  97 S6        30.32S VSB 1
WILMINGTON     CLOUDY    44  44 100 SE6       30.31F FOG
$$

OHZ036-037-039>041-045>050-054>059-063>069-073>076-082>088-230900-
  CENTRAL AND SOUTHEAST OHIO

CITY           SKY/WX    TMP DP  RH WIND       PRES   REMARKS
COLUMBUS       DRZL/FOG  43  43 100 E3        30.33F VSB 1
OSU AIRPORT    CLOUDY    42  42 100 SE8       30.32F FOG
BOLTON FIELD   CLOUDY    42  42 100 SE3       30.33F FOG
RICKENBACK AFB NOT AVBL
NEWARK         CLOUDY    42  41  96 CALM      30.34F FOG
MARION         CLOUDY    41  40  96 S10       30.31F FOG
LANCASTER      CLOUDY    43  42  97 E5        30.34F
ZANESVILLE     CLOUDY    42  39  89 CALM      30.35F
NEW PHILLY     CLOUDY    42  40  92 SE5       30.37F FOG
$$




USA.gov is the U.S. government's official web portal to all federal, state and local government web resources and services.